Location: Haliburton Scout Reserve
(45.0900°N, 78.3200°W)
Time: 15:42:53
(UTC-05:00)

IDEFIX/ARIANE 42P - Visible Passes

Search period start: 25 November 2014 00:00
Search period end: 05 December 2014 00:00
Orbit: 785 x 804 km, 98.3° (Epoch: 24 November)

Date Brightness Start Highest point End Pass type
(mag) Time Alt. Az. Time Alt. Az. Time Alt. Az.
25 Nov 4.5 18:23:50 13° NNE 18:23:50 13° NNE 18:24:39 10° NNE visible
25 Nov 5.1 20:04:40 13° NNW 20:04:40 13° NNW 20:05:12 10° NNW visible
26 Nov 4.8 19:36:15 15° N 19:36:15 15° N 19:37:05 10° N visible
27 Nov 4.6 19:07:49 15° N 19:07:49 15° N 19:08:44 10° N visible
28 Nov 4.6 18:39:23 14° NNE 18:39:23 14° NNE 18:40:08 10° N visible
29 Nov 4.6 18:10:57 11° NNE 18:10:57 11° NNE 18:11:09 10° NNE visible
29 Nov 5.0 19:51:47 12° NNW 19:51:47 12° NNW 19:52:12 10° NNW visible
30 Nov 4.8 19:23:20 14° N 19:23:20 14° N 19:23:58 10° N visible
01 Dec 4.7 18:54:53 13° N 18:54:53 13° N 18:55:31 10° N visible
02 Dec 4.7 18:26:26 11° NNE 18:26:26 11° NNE 18:26:47 10° NNE visible
03 Dec 5.0 19:38:48 12° NNW 19:38:48 12° NNW 19:39:08 10° NNW visible
04 Dec 4.8 19:10:20 13° N 19:10:20 13° N 19:10:49 10° N visible
